Warsaw, Poland

6:14 AM CEST on June 25, 2017 (GMT +0200)
Okecie

Weather History for EPWA - April, 2014

Change the Weather History Date:

Saturday, April 5, 2014

  Actual Average Record
Temperature  
Mean Temperature 46 °F -  
Max Temperature 55 °F 57 °F 74 °F (2016)
Min Temperature 38 °F 38 °F 28 °F (2002)
Degree Days  
Heating Degree Days 18    
Moisture  
Dew Point 23 °F    
Average Humidity 38    
Maximum Humidity 56    
Minimum Humidity 16    
Precipitation  
Precipitation 0.00 in 0.05 in - ()
Sea Level Pressure  
Sea Level Pressure 30.11 in    
Wind  
Wind Speed 12 mph ()    
Max Wind Speed 18 mph    
Max Gust Speed -    
Visibility 19.0 miles    
Events      
Averages and records for this station are not official NWS values.
T = Trace of Precipitation, MM = Missing Value Source: Averaged Metar Reports

Daily Weather History Graph

Daily Weather History Graph

Search for Another Location

Airport or City:

Trip Planner

Search our weather history database for the weather conditions in past years. The results will help you decide how hot, cold, wet, or windy it might be!

Date:

Astronomy

Apr. 05, 2014 Rise Set
Actual Time 6:02 AM CEST 7:16 PM CEST
Civil Twilight 5:27 AM CEST 7:51 PM CEST
Nautical Twilight 4:45 AM CEST 8:34 PM CEST
Astronomical Twilight 3:59 AM CEST 9:20 PM CEST
Moon 9:26 AM CEST (4/5) 12:37 AM CEST (4/5)
Length of Visible Light 14h 24m
Length of Day
13h 14m
Waxing Crescent, 32% of the Moon is Illuminated
Apr 5
Waxing Crescent
Apr 7
First Quarter
Apr 15
Full
Apr 22
Last Quarter
Apr 29
New

Hourly Weather History & Observations

Time (CEST) Temp. Windchill Dew Point Humidity Pressure Visibility Wind Dir Wind Speed Gust Speed Precip Events Conditions
12:00 AM 42 °F - 26 °F 40% 30.09 in 19 mi East 11.2 mph - -   Scattered Clouds
12:00 AM 41.0 °F 33.9 °F 24.8 °F 53% 30.06 in - East 12.7 mph - N/A   Clear
12:30 AM 41.0 °F 33.9 °F 24.8 °F 53% 30.06 in - East 12.7 mph - N/A   Clear
1:00 AM 42 °F - 25 °F 38% 30.10 in 19 mi East 11.2 mph - -   Scattered Clouds
1:00 AM 41.0 °F 33.9 °F 24.8 °F 53% 30.06 in - East 12.7 mph - N/A   Clear
1:30 AM 41.0 °F 33.9 °F 24.8 °F 53% 30.06 in - East 12.7 mph - N/A   Clear
2:00 AM 41 °F - 24 °F 38% 30.11 in 19 mi East 11.2 mph - -   Partly Cloudy
2:00 AM 41.0 °F 34.3 °F 23.0 °F 49% 30.06 in - East 11.5 mph - N/A   Clear
2:30 AM 39.2 °F 31.6 °F 23.0 °F 52% 30.06 in - East 12.7 mph - N/A   Clear
3:00 AM 39 °F - 24 °F 42% 30.11 in 19 mi East 11.2 mph - -   Scattered Clouds
3:00 AM 39.2 °F 32.0 °F 23.0 °F 52% 30.06 in - East 11.5 mph - N/A   Clear
3:30 AM 39.2 °F 32.0 °F 23.0 °F 52% 30.09 in - East 11.5 mph - N/A   Clear
4:00 AM 39 °F - 24 °F 41% 30.11 in 19 mi East 11.2 mph - -   Clear
4:00 AM 39.2 °F 32.0 °F 23.0 °F 52% 30.06 in - East 11.5 mph - N/A   Clear
4:30 AM 39.2 °F 31.6 °F 23.0 °F 52% 30.09 in - East 12.7 mph - N/A   Clear
5:00 AM 39 °F - 23 °F 40% 30.12 in 19 mi East 11.2 mph - -   Clear
5:00 AM 39.2 °F 31.2 °F 23.0 °F 52% 30.09 in - East 13.8 mph - N/A   Clear
5:30 AM 39.2 °F 31.6 °F 23.0 °F 52% 30.09 in - ESE 12.7 mph - N/A   Clear
6:00 AM 38 °F - 23 °F 42% 30.12 in 19 mi ESE 13.4 mph - -   Scattered Clouds
6:00 AM 37.4 °F 29.3 °F 23.0 °F 56% 30.09 in - ESE 12.7 mph - N/A   Clear
6:30 AM 37.4 °F 28.9 °F 23.0 °F 56% 30.09 in - ESE 13.8 mph - N/A   Clear
7:00 AM 39 °F - 23 °F 40% 30.14 in 19 mi ESE 13.4 mph - -   Partly Cloudy
7:00 AM 37.4 °F 29.8 °F 23.0 °F 56% 30.09 in - ESE 11.5 mph - N/A   Clear
7:30 AM 39.2 °F 31.2 °F 23.0 °F 52% 30.12 in - ESE 13.8 mph - N/A   Clear
8:00 AM 40 °F - 22 °F 36% 30.14 in 19 mi ESE 15.7 mph - -   Partly Cloudy
8:00 AM 39.2 °F 30.5 °F 23.0 °F 52% 30.12 in - ESE 16.1 mph - N/A   Clear
8:30 AM 41.0 °F 32.8 °F 23.0 °F 49% 30.12 in - ESE 16.1 mph - N/A   Clear
9:00 AM 42 °F - 24 °F 35% 30.14 in 19 mi ESE 17.9 mph - -   Partly Cloudy
9:00 AM 41.0 °F 32.5 °F 23.0 °F 49% 30.12 in - ESE 17.3 mph - N/A   Clear
9:30 AM 41.0 °F 33.1 °F 23.0 °F 49% 30.12 in - ESE 15.0 mph - N/A   Clear
10:00 AM 44 °F - 24 °F 33% 30.15 in 19 mi ESE 13.4 mph - -   Scattered Clouds
10:00 AM 42.8 °F 34.8 °F 24.8 °F 49% 30.12 in - ESE 17.3 mph - N/A   Clear
10:30 AM 44.6 °F 36.9 °F 23.0 °F 43% 30.12 in - ESE 18.4 mph - N/A   Clear
11:00 AM 46 °F - 26 °F 32% 30.16 in 19 mi East 15.7 mph - -   Scattered Clouds
11:00 AM 44.6 °F 37.8 °F 24.8 °F 46% 30.12 in - East 15.0 mph - N/A   Clear
11:30 AM 46.4 °F 39.8 °F 24.8 °F 43% 30.12 in - ESE 16.1 mph - N/A   Clear
12:00 PM 50 °F - 26 °F 26% 30.15 in 19 mi ESE 15.7 mph - -   Scattered Clouds
12:00 PM 48.2 °F - 24.8 °F 40% 30.12 in - East 15.0 mph - N/A   Clear
12:30 PM 50.0 °F - 26.6 °F 40% 30.12 in - East 13.8 mph - N/A   Clear
1:00 PM 52 °F - 26 °F 24% 30.15 in 19 mi ESE 13.4 mph - -   Clear
1:00 PM 51.8 °F - 26.6 °F 38% 30.12 in - ESE 15.0 mph - N/A   Clear
1:30 PM 51.8 °F - 24.8 °F 35% 30.12 in - ESE 13.8 mph - N/A   Clear
2:00 PM 53 °F - 26 °F 22% 30.14 in 19 mi ESE 11.2 mph - -   Clear
2:00 PM 51.8 °F - 24.8 °F 35% 30.12 in - ESE 16.1 mph - N/A   Clear
2:30 PM 53.6 °F - 24.8 °F 33% 30.12 in - ESE 16.1 mph - N/A   Clear
3:00 PM 54 °F - 23 °F 18% 30.13 in 19 mi ESE 15.7 mph - -   Clear
3:00 PM 53.6 °F - 23.0 °F 30% 30.12 in - SE 16.1 mph - N/A   Clear
3:30 PM 53.6 °F - 24.8 °F 33% 30.09 in - East 15.0 mph - N/A   Clear
4:00 PM 55 °F - 22 °F 16% 30.12 in 19 mi ESE 13.4 mph - -   Clear
4:00 PM 55.4 °F - 23.0 °F 29% 30.09 in - ESE 13.8 mph - N/A   Clear
4:30 PM 55.4 °F - 23.0 °F 29% 30.09 in - ESE 16.1 mph - N/A   Clear
5:00 PM 55 °F - 21 °F 16% 30.12 in 19 mi East 15.7 mph - -   Clear
5:00 PM 53.6 °F - 21.2 °F 28% 30.09 in - East 13.8 mph - N/A   Clear
5:30 PM 53.6 °F - 19.4 °F 26% 30.09 in - ESE 16.1 mph - N/A   Clear
6:00 PM 53 °F - 22 °F 18% 30.12 in 19 mi ESE 15.7 mph - -   Clear
6:00 PM 53.6 °F - 19.4 °F 26% 30.09 in - ESE 15.0 mph - N/A   Clear
6:30 PM 51.8 °F - 19.4 °F 28% 30.09 in - ESE 15.0 mph - N/A   Clear
7:00 PM 50 °F - 18 °F 17% 30.12 in 19 mi ESE 13.4 mph - -   Clear
7:00 PM 50.0 °F - 17.6 °F 28% 30.09 in - ESE 13.8 mph - N/A   Clear
7:30 PM 48.2 °F - 17.6 °F 30% 30.09 in - SE 10.4 mph - N/A   Clear
8:00 PM 47 °F - 20 °F 22% 30.13 in 19 mi ESE 8.9 mph - -   Clear
8:00 PM 46.4 °F 41.1 °F 19.4 °F 34% 30.09 in - ESE 11.5 mph - N/A   Clear
8:30 PM 46.4 °F 40.7 °F 19.4 °F 34% 30.12 in - ESE 12.7 mph - N/A   Clear
9:00 PM 45 °F - 21 °F 25% 30.14 in 19 mi East 13.4 mph - -  
9:00 PM 44.6 °F 38.4 °F 21.2 °F 39% 30.12 in - ESE 12.7 mph - N/A   Clear
9:30 PM 44.6 °F 38.8 °F 21.2 °F 39% 30.12 in - East 11.5 mph - N/A   Clear
10:00 PM 44 °F - 22 °F 29% 30.14 in 19 mi East 11.2 mph - -  
10:00 PM 42.8 °F 36.6 °F 21.2 °F 42% 30.12 in - East 11.5 mph - N/A   Clear
10:30 PM 42.8 °F 36.6 °F 21.2 °F 42% 30.09 in - East 11.5 mph - N/A   Clear
11:00 PM 42 °F - 22 °F 31% 30.14 in 19 mi East 8.9 mph - -  
11:00 PM 42.8 °F 37.5 °F 21.2 °F 42% 30.12 in - East 9.2 mph - N/A   Clear
11:30 PM 41.0 °F 33.9 °F 21.2 °F 45% 30.09 in - ESE 12.7 mph - N/A   Clear